Location: Unnamed
(51.5169°N, 0.1311°W)
Time: 19:55:50
(UTC+01:00)

Tiros 1 - Pass Details

Date: 07 August 2024
Orbit: 623 x 655 km, 48.4° (Epoch: 16 September)

Event Time Altitude Azimuth Distance (km) Brightness Sun altitude
Rises 11:43:39 0° 275° (W) 2,977 10.3 51.0°
Reaches altitude 10° 11:46:04 10° 270° (W) 2,061 9.6 51.2°
Maximum altitude 11:50:36 45° 198° (SSW) 882 9.1 51.6°
Drops below altitude 10° 11:55:04 10° 126° (SE) 2,038 10.5 51.9°
Sets 11:57:27 0° 120° (ESE) 2,940 11.0 52.1°
